owner,sensor,date,latitude,longitude,air_temperature,qcFlag 
DISL,ioos:station:DISL:KATA:1,2011-12-01T00:00:00Z,30.2583,-88.2131,12.04,1111122 
DISL,ioos:station:DISL:KATA:1,2011-12-01T00:30:00Z,30.2583,-88.2131,11.77,1111122 
DISL,ioos:station:DISL:KATA:1,2011-12-01T01:00:00Z,30.2583,-88.2131,11.53,1111122 
DISL,ioos:station:DISL:KATA:1,2011-12-01T01:30:00Z,30.2583,-88.2131,11.2,1111122 
DISL,ioos:station:DISL:KATA:1,2011-12-01T02:00:00Z,30.2583,-88.2131,11.13,1111122 
DISL,ioos:station:DISL:KATA:1,2011-12-01T02:30:00Z,30.2583,-88.2131,10.82,1111122 
DISL,ioos:station:DISL:KATA:1,2011-12-01T03:00:00Z,30.2583,-88.2131,10.82,1111122 
DISL,ioos:station:DISL:KATA:1,2011-12-01T03:30:00Z,30.2583,-88.2131,10.65,1111122 
DISL,ioos:station:DISL:KATA:1,2011-12-01T04:00:00Z,30.2583,-88.2131,10.56,1111122 
DISL,ioos:station:DISL:KATA:1,2011-12-01T04:30:00Z,30.2583,-88.2131,10.15,1111122 
DISL,ioos:station:DISL:KATA:1,2011-12-01T05:00:00Z,30.2583,-88.2131,9.91,1111122 
DISL,ioos:station:DISL:KATA:1,2011-12-01T05:30:00Z,30.2583,-88.2131,9.95,1111122 
DISL,ioos:station:DISL:KATA:1,2011-12-01T06:00:00Z,30.2583,-88.2131,9.2,1111122 
DISL,ioos:station:DISL:KATA:1,2011-12-01T06:30:00Z,30.2583,-88.2131,8.79,1111122 
DISL,ioos:station:DISL:KATA:1,2011-12-01T07:00:00Z,30.2583,-88.2131,8.49,1111122 
DISL,ioos:station:DISL:KATA:1,2011-12-01T07:30:00Z,30.2583,-88.2131,8.39,1111122 
DISL,ioos:station:DISL:KATA:1,2011-12-01T08:00:00Z,30.2583,-88.2131,8.53,1111122 
DISL,ioos:station:DISL:KATA:1,2011-12-01T08:30:00Z,30.2583,-88.2131,8.33,1111122 
DISL,ioos:station:DISL:KATA:1,2011-12-01T09:00:00Z,30.2583,-88.2131,8.29,1111122 
DISL,ioos:station:DISL:KATA:1,2011-12-01T09:30:00Z,30.2583,-88.2131,8.26,1111122 
DISL,ioos:station:DISL:KATA:1,2011-12-01T10:00:00Z,30.2583,-88.2131,8.19,1111122 
DISL,ioos:station:DISL:KATA:1,2011-12-01T10:30:00Z,30.2583,-88.2131,8.26,1111122 
DISL,ioos:station:DISL:KATA:1,2011-12-01T11:00:00Z,30.2583,-88.2131,7.816,1111122 
DISL,ioos:station:DISL:KATA:1,2011-12-01T11:30:00Z,30.2583,-88.2131,7.579,1111122 
DISL,ioos:station:DISL:KATA:1,2011-12-01T12:00:00Z,30.2583,-88.2131,7.647,1111122 
DISL,ioos:station:DISL:KATA:1,2011-12-01T12:30:00Z,30.2583,-88.2131,7.477,1111122 
DISL,ioos:station:DISL:KATA:1,2011-12-01T13:00:00Z,30.2583,-88.2131,7.24,1111122 
DISL,ioos:station:DISL:KATA:1,2011-12-01T13:30:00Z,30.2583,-88.2131,8.33,1111122 
DISL,ioos:station:DISL:KATA:1,2011-12-01T14:00:00Z,30.2583,-88.2131,8.56,1111122 
DISL,ioos:station:DISL:KATA:1,2011-12-01T14:30:00Z,30.2583,-88.2131,8.07,1111122 
DISL,ioos:station:DISL:KATA:1,2011-12-01T15:00:00Z,30.2583,-88.2131,8.44,1111122 
DISL,ioos:station:DISL:KATA:1,2011-12-01T15:30:00Z,30.2583,-88.2131,9.4,1111122 
DISL,ioos:station:DISL:KATA:1,2011-12-01T16:00:00Z,30.2583,-88.2131,9.5,1111122 
DISL,ioos:station:DISL:KATA:1,2011-12-01T16:30:00Z,30.2583,-88.2131,9.69,1111122 
DISL,ioos:station:DISL:KATA:1,2011-12-01T17:00:00Z,30.2583,-88.2131,10.17,1111122 
DISL,ioos:station:DISL:KATA:1,2011-12-01T17:30:00Z,30.2583,-88.2131,10.58,1111122 
DISL,ioos:station:DISL:KATA:1,2011-12-01T18:00:00Z,30.2583,-88.2131,10.64,1111122 
DISL,ioos:station:DISL:KATA:1,2011-12-01T18:30:00Z,30.2583,-88.2131,10.64,1111122 
DISL,ioos:station:DISL:KATA:1,2011-12-01T19:00:00Z,30.2583,-88.2131,10.34,1111122 
DISL,ioos:station:DISL:KATA:1,2011-12-01T19:30:00Z,30.2583,-88.2131,10.07,1111122 
DISL,ioos:station:DISL:KATA:1,2011-12-01T20:00:00Z,30.2583,-88.2131,10.68,1111122 
DISL,ioos:station:DISL:KATA:1,2011-12-01T20:30:00Z,30.2583,-88.2131,10.88,1111122 
DISL,ioos:station:DISL:KATA:1,2011-12-01T21:00:00Z,30.2583,-88.2131,11.46,1111122 
DISL,ioos:station:DISL:KATA:1,2011-12-01T21:30:00Z,30.2583,-88.2131,12.13,1111122 
DISL,ioos:station:DISL:KATA:1,2011-12-01T22:00:00Z,30.2583,-88.2131,12.84,1111122 
DISL,ioos:station:DISL:KATA:1,2011-12-01T22:30:00Z,30.2583,-88.2131,12.88,1111122 
DISL,ioos:station:DISL:KATA:1,2011-12-01T23:00:00Z,30.2583,-88.2131,13.35,1111122 
DISL,ioos:station:DISL:KATA:1,2011-12-01T23:30:00Z,30.2583,-88.2131,12.82,1111122 
DISL,ioos:station:DISL:KATA:1,2011-12-02T00:00:00Z,30.2583,-88.2131,12.79,1111122 
DISL,ioos:station:DISL:KATA:1,2011-12-02T00:30:00Z,30.2583,-88.2131,12.79,1111122 
DISL,ioos:station:DISL:KATA:1,2011-12-02T01:00:00Z,30.2583,-88.2131,12.62,1111122 
DISL,ioos:station:DISL:KATA:1,2011-12-02T01:30:00Z,30.2583,-88.2131,12.38,1111122 
DISL,ioos:station:DISL:KATA:1,2011-12-02T02:00:00Z,30.2583,-88.2131,11.9,1111122 
DISL,ioos:station:DISL:KATA:1,2011-12-02T02:30:00Z,30.2583,-88.2131,11.5,1111122 
DISL,ioos:station:DISL:KATA:1,2011-12-02T03:00:00Z,30.2583,-88.2131,11.64,1111122 
DISL,ioos:station:DISL:KATA:1,2011-12-02T03:30:00Z,30.2583,-88.2131,11.47,1111122 
DISL,ioos:station:DISL:KATA:1,2011-12-02T04:00:00Z,30.2583,-88.2131,11.47,1111122 
DISL,ioos:station:DISL:KATA:1,2011-12-02T04:30:00Z,30.2583,-88.2131,11.43,1111122 
DISL,ioos:station:DISL:KATA:1,2011-12-02T05:00:00Z,30.2583,-88.2131,11.09,1111122 
DISL,ioos:station:DISL:KATA:1,2011-12-02T05:30:00Z,30.2583,-88.2131,11.37,1111122 
DISL,ioos:station:DISL:KATA:1,2011-12-02T06:00:00Z,30.2583,-88.2131,11.47,1111122 
DISL,ioos:station:DISL:KATA:1,2011-12-02T06:30:00Z,30.2583,-88.2131,12.08,1111122 
DISL,ioos:station:DISL:KATA:1,2011-12-02T07:00:00Z,30.2583,-88.2131,12.08,1111122 
DISL,ioos:station:DISL:KATA:1,2011-12-02T07:30:00Z,30.2583,-88.2131,12.04,1111122 
DISL,ioos:station:DISL:KATA:1,2011-12-02T08:00:00Z,30.2583,-88.2131,12.14,1111122 
DISL,ioos:station:DISL:KATA:1,2011-12-02T08:30:00Z,30.2583,-88.2131,12.21,1111122 
DISL,ioos:station:DISL:KATA:1,2011-12-02T09:00:00Z,30.2583,-88.2131,12.24,1111122 
DISL,ioos:station:DISL:KATA:1,2011-12-02T09:30:00Z,30.2583,-88.2131,12.31,1111122 
DISL,ioos:station:DISL:KATA:1,2011-12-02T10:00:00Z,30.2583,-88.2131,12.34,1111122 
DISL,ioos:station:DISL:KATA:1,2011-12-02T10:30:00Z,30.2583,-88.2131,12.34,1111122 
DISL,ioos:station:DISL:KATA:1,2011-12-02T11:00:00Z,30.2583,-88.2131,12.11,1111122 
DISL,ioos:station:DISL:KATA:1,2011-12-02T11:30:00Z,30.2583,-88.2131,12.11,1111122 
DISL,ioos:station:DISL:KATA:1,2011-12-02T12:00:00Z,30.2583,-88.2131,12.07,1111122 
DISL,ioos:station:DISL:KATA:1,2011-12-02T12:30:00Z,30.2583,-88.2131,10.71,1111122 
DISL,ioos:station:DISL:KATA:1,2011-12-02T13:00:00Z,30.2583,-88.2131,8.78,1111122 
DISL,ioos:station:DISL:KATA:1,2011-12-02T13:30:00Z,30.2583,-88.2131,8.48,1111122 
DISL,ioos:station:DISL:KATA:1,2011-12-02T14:00:00Z,30.2583,-88.2131,9.23,1111122 
DISL,ioos:station:DISL:KATA:1,2011-12-02T14:30:00Z,30.2583,-88.2131,10.86,1111122 
DISL,ioos:station:DISL:KATA:1,2011-12-02T15:00:00Z,30.2583,-88.2131,12.24,1111122 
DISL,ioos:station:DISL:KATA:1,2011-12-02T15:30:00Z,30.2583,-88.2131,12.47,1111122 
DISL,ioos:station:DISL:KATA:1,2011-12-02T16:00:00Z,30.2583,-88.2131,12.97,1111122 
DISL,ioos:station:DISL:KATA:1,2011-12-02T16:30:00Z,30.2583,-88.2131,13.11,1111122 
DISL,ioos:station:DISL:KATA:1,2011-12-02T17:00:00Z,30.2583,-88.2131,14.19,1111122 
DISL,ioos:station:DISL:KATA:1,2011-12-02T17:30:00Z,30.2583,-88.2131,15.09,1111122 
DISL,ioos:station:DISL:KATA:1,2011-12-02T18:00:00Z,30.2583,-88.2131,16.04,1111122 
DISL,ioos:station:DISL:KATA:1,2011-12-02T18:30:00Z,30.2583,-88.2131,16.45,1111122 
DISL,ioos:station:DISL:KATA:1,2011-12-02T19:00:00Z,30.2583,-88.2131,17.13,1111122 
DISL,ioos:station:DISL:KATA:1,2011-12-02T19:30:00Z,30.2583,-88.2131,17.23,1111122 
DISL,ioos:station:DISL:KATA:1,2011-12-02T20:00:00Z,30.2583,-88.2131,16.99,1111122 
DISL,ioos:station:DISL:KATA:1,2011-12-02T20:30:00Z,30.2583,-88.2131,17.5,1111122 
DISL,ioos:station:DISL:KATA:1,2011-12-02T21:00:00Z,30.2583,-88.2131,17.87,1111122 
DISL,ioos:station:DISL:KATA:1,2011-12-02T21:30:00Z,30.2583,-88.2131,18.52,1111122 
DISL,ioos:station:DISL:KATA:1,2011-12-02T22:00:00Z,30.2583,-88.2131,18.21,1111122 
DISL,ioos:station:DISL:KATA:1,2011-12-02T22:30:00Z,30.2583,-88.2131,15.43,1111122 
DISL,ioos:station:DISL:KATA:1,2011-12-02T23:00:00Z,30.2583,-88.2131,15.36,1111122 
DISL,ioos:station:DISL:KATA:1,2011-12-02T23:30:00Z,30.2583,-88.2131,15.48,1111122 
DISL,ioos:station:DISL:KATA:1,2011-12-03T00:00:00Z,30.2583,-88.2131,15.79,1111122 
DISL,ioos:station:DISL:KATA:1,2011-12-03T00:30:00Z,30.2583,-88.2131,15.72,1111122 
DISL,ioos:station:DISL:KATA:1,2011-12-03T01:00:00Z,30.2583,-88.2131,15.62,1111122 
DISL,ioos:station:DISL:KATA:1,2011-12-03T01:30:00Z,30.2583,-88.2131,15.55,1111122 
DISL,ioos:station:DISL:KATA:1,2011-12-03T02:00:00Z,30.2583,-88.2131,15.38,1111122 
DISL,ioos:station:DISL:KATA:1,2011-12-03T02:30:00Z,30.2583,-88.2131,14.91,1111122 
DISL,ioos:station:DISL:KATA:1,2011-12-03T03:00:00Z,30.2583,-88.2131,14.77,1111122 
DISL,ioos:station:DISL:KATA:1,2011-12-03T03:30:00Z,30.2583,-88.2131,14.33,1111122 
DISL,ioos:station:DISL:KATA:1,2011-12-03T04:00:00Z,30.2583,-88.2131,13.92,1111122 
DISL,ioos:station:DISL:KATA:1,2011-12-03T04:30:00Z,30.2583,-88.2131,13.76,1111122 
DISL,ioos:station:DISL:KATA:1,2011-12-03T05:00:00Z,30.2583,-88.2131,13.52,1111122 
DISL,ioos:station:DISL:KATA:1,2011-12-03T05:30:00Z,30.2583,-88.2131,13.46,1111122 
DISL,ioos:station:DISL:KATA:1,2011-12-03T06:00:00Z,30.2583,-88.2131,13.15,1111122 
DISL,ioos:station:DISL:KATA:1,2011-12-03T06:30:00Z,30.2583,-88.2131,13.12,1111122 
DISL,ioos:station:DISL:KATA:1,2011-12-03T07:00:00Z,30.2583,-88.2131,13.25,1111122 
DISL,ioos:station:DISL:KATA:1,2011-12-03T07:30:00Z,30.2583,-88.2131,13.42,1111122 
DISL,ioos:station:DISL:KATA:1,2011-12-03T08:00:00Z,30.2583,-88.2131,13.46,1111122 
DISL,ioos:station:DISL:KATA:1,2011-12-03T08:30:00Z,30.2583,-88.2131,13.35,1111122 
DISL,ioos:station:DISL:KATA:1,2011-12-03T09:00:00Z,30.2583,-88.2131,13.32,1111122 
DISL,ioos:station:DISL:KATA:1,2011-12-03T09:30:00Z,30.2583,-88.2131,13.35,1111122 
DISL,ioos:station:DISL:KATA:1,2011-12-03T10:00:00Z,30.2583,-88.2131,13.22,1111122 
DISL,ioos:station:DISL:KATA:1,2011-12-03T10:30:00Z,30.2583,-88.2131,13.18,1111122 
DISL,ioos:station:DISL:KATA:1,2011-12-03T11:00:00Z,30.2583,-88.2131,13.32,1111122 
DISL,ioos:station:DISL:KATA:1,2011-12-03T11:30:00Z,30.2583,-88.2131,13.29,1111122 
DISL,ioos:station:DISL:KATA:1,2011-12-03T12:00:00Z,30.2583,-88.2131,13.15,1111122 
DISL,ioos:station:DISL:KATA:1,2011-12-03T12:30:00Z,30.2583,-88.2131,13.05,1111122 
DISL,ioos:station:DISL:KATA:1,2011-12-03T13:00:00Z,30.2583,-88.2131,13.35,1111122 
DISL,ioos:station:DISL:KATA:1,2011-12-03T13:30:00Z,30.2583,-88.2131,13.93,1111122 
DISL,ioos:station:DISL:KATA:1,2011-12-03T14:00:00Z,30.2583,-88.2131,13.99,1111122 
DISL,ioos:station:DISL:KATA:1,2011-12-03T14:30:00Z,30.2583,-88.2131,14.43,1111122 
DISL,ioos:station:DISL:KATA:1,2011-12-03T15:00:00Z,30.2583,-88.2131,14.67,1111122 
DISL,ioos:station:DISL:KATA:1,2011-12-03T15:30:00Z,30.2583,-88.2131,14.69,1111122 
DISL,ioos:station:DISL:KATA:1,2011-12-03T16:00:00Z,30.2583,-88.2131,15.64,1111122 
DISL,ioos:station:DISL:KATA:1,2011-12-03T16:30:00Z,30.2583,-88.2131,16.45,1111122 
DISL,ioos:station:DISL:KATA:1,2011-12-03T17:00:00Z,30.2583,-88.2131,16.79,1111122 
DISL,ioos:station:DISL:KATA:1,2011-12-03T17:30:00Z,30.2583,-88.2131,16.52,1111122 
DISL,ioos:station:DISL:KATA:1,2011-12-03T18:00:00Z,30.2583,-88.2131,17.16,1111122 
DISL,ioos:station:DISL:KATA:1,2011-12-03T18:30:00Z,30.2583,-88.2131,17.87,1111122 
DISL,ioos:station:DISL:KATA:1,2011-12-03T19:00:00Z,30.2583,-88.2131,18.27,1111122 
DISL,ioos:station:DISL:KATA:1,2011-12-03T19:30:00Z,30.2583,-88.2131,17.97,1111122 
DISL,ioos:station:DISL:KATA:1,2011-12-03T20:00:00Z,30.2583,-88.2131,17.83,1111122 
DISL,ioos:station:DISL:KATA:1,2011-12-03T20:30:00Z,30.2583,-88.2131,18.24,1111122 
DISL,ioos:station:DISL:KATA:1,2011-12-03T21:00:00Z,30.2583,-88.2131,18.31,1111122 
DISL,ioos:station:DISL:KATA:1,2011-12-03T21:30:00Z,30.2583,-88.2131,18.41,1111122 
DISL,ioos:station:DISL:KATA:1,2011-12-03T22:00:00Z,30.2583,-88.2131,17.97,1111122 
DISL,ioos:station:DISL:KATA:1,2011-12-03T22:30:00Z,30.2583,-88.2131,18.0,1111122 
DISL,ioos:station:DISL:KATA:1,2011-12-03T23:00:00Z,30.2583,-88.2131,17.77,1111122 
DISL,ioos:station:DISL:KATA:1,2011-12-03T23:30:00Z,30.2583,-88.2131,17.84,1111122 
DISL,ioos:station:DISL:KATA:1,2011-12-04T00:00:00Z,30.2583,-88.2131,17.88,1111122 
DISL,ioos:station:DISL:KATA:1,2011-12-04T00:30:00Z,30.2583,-88.2131,17.71,1111122 
DISL,ioos:station:DISL:KATA:1,2011-12-04T01:00:00Z,30.2583,-88.2131,17.64,1111122 
DISL,ioos:station:DISL:KATA:1,2011-12-04T01:30:00Z,30.2583,-88.2131,17.84,1111122 
DISL,ioos:station:DISL:KATA:1,2011-12-04T02:00:00Z,30.2583,-88.2131,17.74,1111122 
DISL,ioos:station:DISL:KATA:1,2011-12-04T02:30:00Z,30.2583,-88.2131,17.98,1111122 
DISL,ioos:station:DISL:KATA:1,2011-12-04T03:00:00Z,30.2583,-88.2131,17.88,1111122 
DISL,ioos:station:DISL:KATA:1,2011-12-04T03:30:00Z,30.2583,-88.2131,18.08,1111122 
DISL,ioos:station:DISL:KATA:1,2011-12-04T04:00:00Z,30.2583,-88.2131,18.21,1111122 
DISL,ioos:station:DISL:KATA:1,2011-12-04T04:30:00Z,30.2583,-88.2131,18.15,1111122 
DISL,ioos:station:DISL:KATA:1,2011-12-04T05:00:00Z,30.2583,-88.2131,18.01,1111122 
DISL,ioos:station:DISL:KATA:1,2011-12-04T05:30:00Z,30.2583,-88.2131,18.35,1111122 
DISL,ioos:station:DISL:KATA:1,2011-12-04T06:00:00Z,30.2583,-88.2131,18.08,1111122 
DISL,ioos:station:DISL:KATA:1,2011-12-04T06:30:00Z,30.2583,-88.2131,17.77,1111122 
DISL,ioos:station:DISL:KATA:1,2011-12-04T07:00:00Z,30.2583,-88.2131,17.6,1111122 
DISL,ioos:station:DISL:KATA:1,2011-12-04T07:30:00Z,30.2583,-88.2131,16.04,1111122 
DISL,ioos:station:DISL:KATA:1,2011-12-04T08:00:00Z,30.2583,-88.2131,15.8,1111122 
DISL,ioos:station:DISL:KATA:1,2011-12-04T08:30:00Z,30.2583,-88.2131,16.83,1111122 
DISL,ioos:station:DISL:KATA:1,2011-12-04T09:00:00Z,30.2583,-88.2131,18.28,1111122 
DISL,ioos:station:DISL:KATA:1,2011-12-04T09:30:00Z,30.2583,-88.2131,18.15,1111122 
DISL,ioos:station:DISL:KATA:1,2011-12-04T10:00:00Z,30.2583,-88.2131,18.21,1111122 
DISL,ioos:station:DISL:KATA:1,2011-12-04T10:30:00Z,30.2583,-88.2131,18.28,1111122 
DISL,ioos:station:DISL:KATA:1,2011-12-04T11:00:00Z,30.2583,-88.2131,17.81,1111122 
DISL,ioos:station:DISL:KATA:1,2011-12-04T11:30:00Z,30.2583,-88.2131,18.35,1111122 
DISL,ioos:station:DISL:KATA:1,2011-12-04T12:00:00Z,30.2583,-88.2131,18.45,1111122 
DISL,ioos:station:DISL:KATA:1,2011-12-04T12:30:00Z,30.2583,-88.2131,16.92,1111122 
DISL,ioos:station:DISL:KATA:1,2011-12-04T13:00:00Z,30.2583,-88.2131,16.52,1111122 
DISL,ioos:station:DISL:KATA:1,2011-12-04T13:30:00Z,30.2583,-88.2131,18.11,1111122 
DISL,ioos:station:DISL:KATA:1,2011-12-04T14:00:00Z,30.2583,-88.2131,17.81,1111122 
DISL,ioos:station:DISL:KATA:1,2011-12-04T14:30:00Z,30.2583,-88.2131,17.84,1111122 
DISL,ioos:station:DISL:KATA:1,2011-12-04T15:00:00Z,30.2583,-88.2131,17.9,1111122 
DISL,ioos:station:DISL:KATA:1,2011-12-04T15:30:00Z,30.2583,-88.2131,18.75,1111122 
DISL,ioos:station:DISL:KATA:1,2011-12-04T16:00:00Z,30.2583,-88.2131,18.94,1111122 
DISL,ioos:station:DISL:KATA:1,2011-12-04T16:30:00Z,30.2583,-88.2131,18.77,1111122 
DISL,ioos:station:DISL:KATA:1,2011-12-04T17:00:00Z,30.2583,-88.2131,18.84,1111122 
DISL,ioos:station:DISL:KATA:1,2011-12-04T17:30:00Z,30.2583,-88.2131,18.87,1111122 
DISL,ioos:station:DISL:KATA:1,2011-12-04T18:00:00Z,30.2583,-88.2131,18.66,1111122 
DISL,ioos:station:DISL:KATA:1,2011-12-04T18:30:00Z,30.2583,-88.2131,18.62,1111122 
DISL,ioos:station:DISL:KATA:1,2011-12-04T19:00:00Z,30.2583,-88.2131,18.59,1111122 
DISL,ioos:station:DISL:KATA:1,2011-12-04T19:30:00Z,30.2583,-88.2131,18.79,1111122 
DISL,ioos:station:DISL:KATA:1,2011-12-04T20:00:00Z,30.2583,-88.2131,18.94,1111122 
DISL,ioos:station:DISL:KATA:1,2011-12-04T20:30:00Z,30.2583,-88.2131,18.7,1111122 
DISL,ioos:station:DISL:KATA:1,2011-12-04T21:00:00Z,30.2583,-88.2131,18.81,1111122 
DISL,ioos:station:DISL:KATA:1,2011-12-04T21:30:00Z,30.2583,-88.2131,18.6,1111122 
DISL,ioos:station:DISL:KATA:1,2011-12-04T22:00:00Z,30.2583,-88.2131,18.48,1111122 
DISL,ioos:station:DISL:KATA:1,2011-12-04T22:30:00Z,30.2583,-88.2131,18.54,1111122 
DISL,ioos:station:DISL:KATA:1,2011-12-04T23:00:00Z,30.2583,-88.2131,18.34,1111122 
DISL,ioos:station:DISL:KATA:1,2011-12-04T23:30:00Z,30.2583,-88.2131,18.48,1111122 
DISL,ioos:station:DISL:KATA:1,2011-12-05T00:00:00Z,30.2583,-88.2131,18.45,1111122 
DISL,ioos:station:DISL:KATA:1,2011-12-05T00:30:00Z,30.2583,-88.2131,18.55,1111122 
DISL,ioos:station:DISL:KATA:1,2011-12-05T01:00:00Z,30.2583,-88.2131,18.58,1111122 
DISL,ioos:station:DISL:KATA:1,2011-12-05T01:30:00Z,30.2583,-88.2131,18.58,1111122 
DISL,ioos:station:DISL:KATA:1,2011-12-05T02:00:00Z,30.2583,-88.2131,18.68,1111122 
DISL,ioos:station:DISL:KATA:1,2011-12-05T02:30:00Z,30.2583,-88.2131,18.58,1111122 
DISL,ioos:station:DISL:KATA:1,2011-12-05T03:00:00Z,30.2583,-88.2131,18.58,1111122 
DISL,ioos:station:DISL:KATA:1,2011-12-05T03:30:00Z,30.2583,-88.2131,18.82,1111122 
DISL,ioos:station:DISL:KATA:1,2011-12-05T04:00:00Z,30.2583,-88.2131,18.78,1111122 
DISL,ioos:station:DISL:KATA:1,2011-12-05T04:30:00Z,30.2583,-88.2131,18.78,1111122 
DISL,ioos:station:DISL:KATA:1,2011-12-05T05:00:00Z,30.2583,-88.2131,18.85,1111122 
DISL,ioos:station:DISL:KATA:1,2011-12-05T05:30:00Z,30.2583,-88.2131,18.95,1111122 
DISL,ioos:station:DISL:KATA:1,2011-12-05T06:00:00Z,30.2583,-88.2131,18.82,1111122 
DISL,ioos:station:DISL:KATA:1,2011-12-05T06:30:00Z,30.2583,-88.2131,18.75,1111122 
DISL,ioos:station:DISL:KATA:1,2011-12-05T07:00:00Z,30.2583,-88.2131,18.58,1111122 
DISL,ioos:station:DISL:KATA:1,2011-12-05T07:30:00Z,30.2583,-88.2131,18.55,1111122 
DISL,ioos:station:DISL:KATA:1,2011-12-05T08:00:00Z,30.2583,-88.2131,18.69,1111122 
DISL,ioos:station:DISL:KATA:1,2011-12-05T08:30:00Z,30.2583,-88.2131,18.59,1111122 
DISL,ioos:station:DISL:KATA:1,2011-12-05T09:00:00Z,30.2583,-88.2131,18.69,1111122 
DISL,ioos:station:DISL:KATA:1,2011-12-05T09:30:00Z,30.2583,-88.2131,18.55,1111122 
DISL,ioos:station:DISL:KATA:1,2011-12-05T10:00:00Z,30.2583,-88.2131,18.85,1111122 
DISL,ioos:station:DISL:KATA:1,2011-12-05T10:30:00Z,30.2583,-88.2131,19.05,1111122 
DISL,ioos:station:DISL:KATA:1,2011-12-05T11:00:00Z,30.2583,-88.2131,18.95,1111122 
DISL,ioos:station:DISL:KATA:1,2011-12-05T11:30:00Z,30.2583,-88.2131,18.61,1111122 
DISL,ioos:station:DISL:KATA:1,2011-12-05T12:00:00Z,30.2583,-88.2131,18.71,1111122 
DISL,ioos:station:DISL:KATA:1,2011-12-05T12:30:00Z,30.2583,-88.2131,18.85,1111122 
DISL,ioos:station:DISL:KATA:1,2011-12-05T13:00:00Z,30.2583,-88.2131,18.71,1111122 
DISL,ioos:station:DISL:KATA:1,2011-12-05T13:30:00Z,30.2583,-88.2131,19.05,1111122 
DISL,ioos:station:DISL:KATA:1,2011-12-05T14:00:00Z,30.2583,-88.2131,19.9,1111122 
DISL,ioos:station:DISL:KATA:1,2011-12-05T14:30:00Z,30.2583,-88.2131,19.46,1111122 
DISL,ioos:station:DISL:KATA:1,2011-12-05T15:00:00Z,30.2583,-88.2131,19.49,1111122 
DISL,ioos:station:DISL:KATA:1,2011-12-05T15:30:00Z,30.2583,-88.2131,19.42,1111122 
DISL,ioos:station:DISL:KATA:1,2011-12-05T16:00:00Z,30.2583,-88.2131,19.15,1111122 
DISL,ioos:station:DISL:KATA:1,2011-12-05T16:30:00Z,30.2583,-88.2131,19.28,1111122 
DISL,ioos:station:DISL:KATA:1,2011-12-05T17:00:00Z,30.2583,-88.2131,19.69,1111122 
DISL,ioos:station:DISL:KATA:1,2011-12-05T17:30:00Z,30.2583,-88.2131,19.52,1111122 
DISL,ioos:station:DISL:KATA:1,2011-12-05T18:00:00Z,30.2583,-88.2131,19.46,1111122 
DISL,ioos:station:DISL:KATA:1,2011-12-05T18:30:00Z,30.2583,-88.2131,19.76,1111122 
DISL,ioos:station:DISL:KATA:1,2011-12-05T19:00:00Z,30.2583,-88.2131,19.32,1111122 
DISL,ioos:station:DISL:KATA:1,2011-12-05T19:30:00Z,30.2583,-88.2131,19.66,1111122 
DISL,ioos:station:DISL:KATA:1,2011-12-05T20:00:00Z,30.2583,-88.2131,19.56,1111122 
DISL,ioos:station:DISL:KATA:1,2011-12-05T20:30:00Z,30.2583,-88.2131,19.19,1111122 
DISL,ioos:station:DISL:KATA:1,2011-12-05T21:00:00Z,30.2583,-88.2131,19.15,1111122 
DISL,ioos:station:DISL:KATA:1,2011-12-05T21:30:00Z,30.2583,-88.2131,19.04,1111122 
DISL,ioos:station:DISL:KATA:1,2011-12-05T22:00:00Z,30.2583,-88.2131,19.38,1111122 
DISL,ioos:station:DISL:KATA:1,2011-12-05T22:30:00Z,30.2583,-88.2131,19.05,1111122 
DISL,ioos:station:DISL:KATA:1,2011-12-05T23:00:00Z,30.2583,-88.2131,19.29,1111122 
DISL,ioos:station:DISL:KATA:1,2011-12-05T23:30:00Z,30.2583,-88.2131,18.88,1111122 
DISL,ioos:station:DISL:KATA:1,2011-12-06T00:00:00Z,30.2583,-88.2131,18.82,1111122 
DISL,ioos:station:DISL:KATA:1,2011-12-06T00:30:00Z,30.2583,-88.2131,19.19,1111122 
DISL,ioos:station:DISL:KATA:1,2011-12-06T01:00:00Z,30.2583,-88.2131,19.39,1111122 
DISL,ioos:station:DISL:KATA:1,2011-12-06T01:30:00Z,30.2583,-88.2131,18.88,1111122 
DISL,ioos:station:DISL:KATA:1,2011-12-06T02:00:00Z,30.2583,-88.2131,18.88,1111122 
DISL,ioos:station:DISL:KATA:1,2011-12-06T02:30:00Z,30.2583,-88.2131,18.88,1111122 
DISL,ioos:station:DISL:KATA:1,2011-12-06T03:00:00Z,30.2583,-88.2131,19.09,1111122 
DISL,ioos:station:DISL:KATA:1,2011-12-06T03:30:00Z,30.2583,-88.2131,18.88,1111122 
DISL,ioos:station:DISL:KATA:1,2011-12-06T04:00:00Z,30.2583,-88.2131,18.78,1111122 
DISL,ioos:station:DISL:KATA:1,2011-12-06T04:30:00Z,30.2583,-88.2131,19.05,1111122 
DISL,ioos:station:DISL:KATA:1,2011-12-06T05:00:00Z,30.2583,-88.2131,19.15,1111122 
DISL,ioos:station:DISL:KATA:1,2011-12-06T05:30:00Z,30.2583,-88.2131,19.02,1111122 
DISL,ioos:station:DISL:KATA:1,2011-12-06T06:00:00Z,30.2583,-88.2131,19.02,1111122 
DISL,ioos:station:DISL:KATA:1,2011-12-06T06:30:00Z,30.2583,-88.2131,19.22,1111122 
DISL,ioos:station:DISL:KATA:1,2011-12-06T07:00:00Z,30.2583,-88.2131,19.39,1111122 
DISL,ioos:station:DISL:KATA:1,2011-12-06T07:30:00Z,30.2583,-88.2131,19.6,1111122 
DISL,ioos:station:DISL:KATA:1,2011-12-06T08:00:00Z,30.2583,-88.2131,19.46,1111122 
DISL,ioos:station:DISL:KATA:1,2011-12-06T08:30:00Z,30.2583,-88.2131,19.29,1111122 
DISL,ioos:station:DISL:KATA:1,2011-12-06T09:00:00Z,30.2583,-88.2131,19.12,1111122 
DISL,ioos:station:DISL:KATA:1,2011-12-06T09:30:00Z,30.2583,-88.2131,18.99,1111122 
DISL,ioos:station:DISL:KATA:1,2011-12-06T10:00:00Z,30.2583,-88.2131,18.85,1111122 
DISL,ioos:station:DISL:KATA:1,2011-12-06T10:30:00Z,30.2583,-88.2131,19.12,1111122 
DISL,ioos:station:DISL:KATA:1,2011-12-06T11:00:00Z,30.2583,-88.2131,19.43,1111122 
DISL,ioos:station:DISL:KATA:1,2011-12-06T11:30:00Z,30.2583,-88.2131,19.12,1111122 
DISL,ioos:station:DISL:KATA:1,2011-12-06T12:00:00Z,30.2583,-88.2131,18.88,1111122 
DISL,ioos:station:DISL:KATA:1,2011-12-06T12:30:00Z,30.2583,-88.2131,18.92,1111122 
DISL,ioos:station:DISL:KATA:1,2011-12-06T13:00:00Z,30.2583,-88.2131,18.03,1111122 
DISL,ioos:station:DISL:KATA:1,2011-12-06T13:30:00Z,30.2583,-88.2131,17.49,1111122 
DISL,ioos:station:DISL:KATA:1,2011-12-06T14:00:00Z,30.2583,-88.2131,17.29,1111122 
DISL,ioos:station:DISL:KATA:1,2011-12-06T14:30:00Z,30.2583,-88.2131,16.31,1111122 
DISL,ioos:station:DISL:KATA:1,2011-12-06T15:00:00Z,30.2583,-88.2131,15.4,1111122 
DISL,ioos:station:DISL:KATA:1,2011-12-06T15:30:00Z,30.2583,-88.2131,15.09,1111122 
DISL,ioos:station:DISL:KATA:1,2011-12-06T16:00:00Z,30.2583,-88.2131,14.89,1111122 
DISL,ioos:station:DISL:KATA:1,2011-12-06T16:30:00Z,30.2583,-88.2131,14.72,1111122 
DISL,ioos:station:DISL:KATA:1,2011-12-06T17:00:00Z,30.2583,-88.2131,15.33,1111122 
DISL,ioos:station:DISL:KATA:1,2011-12-06T17:30:00Z,30.2583,-88.2131,15.43,1111122 
DISL,ioos:station:DISL:KATA:1,2011-12-06T18:00:00Z,30.2583,-88.2131,15.67,1111122 
DISL,ioos:station:DISL:KATA:1,2011-12-06T18:30:00Z,30.2583,-88.2131,15.91,1111122 
DISL,ioos:station:DISL:KATA:1,2011-12-06T19:00:00Z,30.2583,-88.2131,16.08,1111122 
DISL,ioos:station:DISL:KATA:1,2011-12-06T19:30:00Z,30.2583,-88.2131,16.18,1111122 
DISL,ioos:station:DISL:KATA:1,2011-12-06T20:00:00Z,30.2583,-88.2131,16.45,1111122 
DISL,ioos:station:DISL:KATA:1,2011-12-06T20:30:00Z,30.2583,-88.2131,17.36,1111122 
DISL,ioos:station:DISL:KATA:1,2011-12-06T21:00:00Z,30.2583,-88.2131,16.37,1111122 
DISL,ioos:station:DISL:KATA:1,2011-12-06T21:30:00Z,30.2583,-88.2131,16.88,1111122 
DISL,ioos:station:DISL:KATA:1,2011-12-06T22:00:00Z,30.2583,-88.2131,16.71,1111122 
DISL,ioos:station:DISL:KATA:1,2011-12-06T22:30:00Z,30.2583,-88.2131,16.18,1111122 
DISL,ioos:station:DISL:KATA:1,2011-12-06T23:00:00Z,30.2583,-88.2131,15.43,1111122 
DISL,ioos:station:DISL:KATA:1,2011-12-06T23:30:00Z,30.2583,-88.2131,14.82,1111122 